Dobrodošli na spletni strani vremenske postaje Senovo. Vse informacije so informativnega značaja, saj vremenska postaja ni del državne mreže meteoroloških postaj. OBVESTILO: Letni količini padavin navedeni na spletni strani je potrebno prišteti 98,1 mm, zaradi izgube podatkov.


Veter Od: 11-12-2017 04:00 Do: 12-12-2017 10:59 Opozorilo za: Veter Stopnja: Oranžna info button
Dež Od: 11-12-2017 00:00 Do: 16:59 Opozorilo za: Dež Stopnja: Rumena info button

Pogled proti Armezu več informacij Pogled proti Armezu


Lisca več informacij Lisca


Radar strel več informacij blitzortung!


opozorilo za Dež več informacij rain snow radar


Obiščite še:

Template documentation
and downloads

And another site



Weather Underground, zgodovina - Tekstovno

Dnevni povzetek za Avgust 6, 2017 Enote:  Metrično    Angleško   Obe
« Predhodni Dan
Naslednji Dan »
Dnevni Tedenski Mesečni Letni Po meri
  Višja: Nižja: Povprečje:
Temperatura: 28.1 °C 18.1 °C 23.9 °C
Točka rosišča: 20.2 °C 15.7 °C 17.7 °C
Vlažnost: 90 % 54 % 69 %
Hitrost vetra: 11.1 km/h 0.0 km/h 5.1 km/h
Sunki vetra: 31.4 km/h - -
Veter:- - ESE
Zračni tlak: 1020.9 hPa 1015.1 hPa -
Padavine: 9.1 mm    
Historical Graphs
 
 
Tabelarni podarki za Avgust 6, 2017
Čas Temperatura Točka rosišča Zračni tlak Veter Hitrost vetra Sunki vetra Vlažnost Intenziteta padavin (urna)
00:02 23.1 °C 20.1 °C 1015.1 hPa Calm     83 % 0.0 mm
00:07 23.0 °C 19.9 °C 1015.1 hPa Calm     83 % 0.0 mm
00:08 22.6 °C 19.8 °C 1015.1 hPa Calm     84 % 0.0 mm
00:13 23.0 °C 20.2 °C 1015.1 hPa Calm     84 % 0.0 mm
00:18 22.9 °C 20.1 °C 1015.1 hPa Calm     84 % 0.0 mm
00:23 22.9 °C 20.1 °C 1015.1 hPa Calm     84 % 0.0 mm
00:28 22.9 °C 20.1 °C 1015.1 hPa Calm     84 % 0.0 mm
00:33 22.9 °C 20.1 °C 1015.1 hPa Calm     84 % 0.0 mm
00:38 22.8 °C 20.2 °C 1015.1 hPa Calm     85 % 0.0 mm
00:43 22.8 °C 20.2 °C 1015.1 hPa Calm     85 % 0.0 mm
00:48 22.8 °C 20.2 °C 1015.1 hPa Calm     85 % 0.0 mm
00:58 22.7 °C 20.1 °C 1015.1 hPa Calm     85 % 0.0 mm
01:03 22.7 °C 20.1 °C 1015.1 hPa Calm     85 % 0.0 mm
01:04 22.7 °C 20.1 °C 1015.1 hPa Calm     85 % 0.0 mm
01:09 22.6 °C 19.9 °C 1015.1 hPa Calm     85 % 0.0 mm
01:14 22.6 °C 20.1 °C 1015.1 hPa Calm     86 % 0.0 mm
01:19 22.6 °C 20.1 °C 1015.1 hPa Calm     86 % 0.0 mm
01:24 22.5 °C 20.1 °C 1015.1 hPa Calm     86 % 0.0 mm
01:29 22.4 °C 19.9 °C 1015.1 hPa Calm     86 % 0.0 mm
01:39 22.3 °C 20.1 °C 1016.1 hPa Calm     87 % 0.0 mm
01:44 22.5 °C 20.1 °C 1016.1 hPa SE 0.6 km/h 5.8 km/h 86 % 0.0 mm
01:49 23.0 °C 19.9 °C 1015.1 hPa ENE 3.4 km/h 11.9 km/h 83 % 0.0 mm
01:54 23.7 °C 20.1 °C 1015.1 hPa ENE 4.0 km/h 11.9 km/h 80 % 0.0 mm
01:59 24.1 °C 19.8 °C 1015.1 hPa ENE 3.4 km/h 16.3 km/h 77 % 0.0 mm
02:04 24.6 °C 19.9 °C 1015.1 hPa NE 4.3 km/h 16.3 km/h 75 % 0.0 mm
02:09 24.9 °C 19.9 °C 1015.1 hPa NE 4.0 km/h 8.7 km/h 74 % 0.0 mm
02:14 25.0 °C 19.6 °C 1015.1 hPa ENE 3.1 km/h 8.7 km/h 72 % 0.0 mm
02:19 25.0 °C 19.4 °C 1015.1 hPa East 2.4 km/h 6.9 km/h 71 % 0.0 mm
02:24 25.1 °C 19.2 °C 1015.1 hPa East 3.2 km/h 9.3 km/h 70 % 0.0 mm
02:29 25.2 °C 19.1 °C 1015.1 hPa ENE 5.5 km/h 14.0 km/h 69 % 0.0 mm
02:34 25.2 °C 19.1 °C 1015.1 hPa ENE 6.0 km/h 14.0 km/h 69 % 0.0 mm
02:39 25.2 °C 18.9 °C 1015.1 hPa ENE 5.3 km/h 14.0 km/h 68 % 0.0 mm
02:44 25.2 °C 18.9 °C 1015.1 hPa ENE 4.8 km/h 11.9 km/h 68 % 0.0 mm
02:49 25.1 °C 18.6 °C 1015.1 hPa ENE 3.4 km/h 11.9 km/h 67 % 0.0 mm
02:54 25.0 °C 18.4 °C 1015.1 hPa ESE 1.8 km/h 6.1 km/h 67 % 0.0 mm
02:59 24.9 °C 18.3 °C 1015.1 hPa SE 1.3 km/h 6.1 km/h 67 % 0.0 mm
03:04 24.8 °C 18.3 °C 1015.1 hPa ESE 2.3 km/h 7.6 km/h 67 % 0.0 mm
03:14 24.8 °C 18.0 °C 1015.1 hPa ENE 3.4 km/h 10.1 km/h 66 % 0.0 mm
03:19 25.0 °C 17.4 °C 1015.1 hPa ENE 5.0 km/h 9.3 km/h 63 % 0.0 mm
03:24 25.1 °C 17.3 °C 1015.1 hPa ENE 5.0 km/h 10.1 km/h 62 % 0.0 mm
03:29 25.1 °C 17.1 °C 1015.1 hPa East 5.1 km/h 11.9 km/h 61 % 0.0 mm
03:34 25.2 °C 16.9 °C 1015.1 hPa East 4.8 km/h 11.9 km/h 60 % 0.0 mm
03:39 25.2 °C 16.9 °C 1015.1 hPa East 5.5 km/h 16.6 km/h 60 % 0.0 mm
03:44 25.1 °C 16.8 °C 1015.1 hPa ESE 5.8 km/h 16.6 km/h 60 % 0.0 mm
03:49 25.0 °C 16.7 °C 1015.1 hPa ESE 4.3 km/h 7.6 km/h 60 % 0.0 mm
03:54 24.9 °C 16.6 °C 1015.1 hPa ESE 2.7 km/h 7.2 km/h 60 % 0.0 mm
03:59 24.7 °C 16.7 °C 1015.1 hPa ESE 2.6 km/h 6.4 km/h 61 % 0.0 mm
04:04 24.6 °C 16.6 °C 1015.1 hPa SSE 4.3 km/h 9.7 km/h 61 % 0.0 mm
04:09 24.5 °C 16.5 °C 1015.1 hPa South 5.1 km/h 13.0 km/h 61 % 0.0 mm
04:14 24.4 °C 16.7 °C 1015.1 hPa South 4.2 km/h 13.0 km/h 62 % 0.0 mm
04:19 24.2 °C 16.7 °C 1015.1 hPa SSE 3.2 km/h 9.3 km/h 63 % 0.0 mm
04:24 24.0 °C 16.5 °C 1015.1 hPa SSE 2.6 km/h 9.7 km/h 63 % 0.0 mm
04:29 23.8 °C 16.6 °C 1015.1 hPa South 3.4 km/h 10.1 km/h 64 % 0.0 mm
04:34 23.5 °C 16.8 °C 1015.1 hPa SSW 3.9 km/h 10.1 km/h 66 % 0.0 mm
04:39 23.3 °C 16.8 °C 1015.1 hPa SW 1.8 km/h 5.8 km/h 67 % 0.0 mm
04:44 23.0 °C 16.8 °C 1015.1 hPa NW 0.5 km/h 3.2 km/h 68 % 0.0 mm
04:49 22.8 °C 16.8 °C 1015.1 hPa NW 0.3 km/h 3.2 km/h 69 % 0.0 mm
04:54 22.6 °C 16.8 °C 1015.1 hPa Calm     70 % 0.0 mm
04:59 22.4 °C 16.7 °C 1015.1 hPa Calm     70 % 0.0 mm
05:04 22.2 °C 16.7 °C 1015.1 hPa West 0.3 km/h 3.2 km/h 71 % 0.0 mm
05:09 22.0 °C 16.7 °C 1015.1 hPa West 0.3 km/h 3.2 km/h 72 % 0.0 mm
05:14 21.8 °C 16.7 °C 1015.1 hPa Calm     73 % 0.0 mm
05:20 21.7 °C 16.9 °C 1015.1 hPa Calm     74 % 0.0 mm
05:25 21.6 °C 17.0 °C 1015.1 hPa Calm     75 % 0.0 mm
05:30 21.5 °C 17.1 °C 1015.1 hPa Calm     76 % 0.0 mm
05:35 21.5 °C 17.1 °C 1015.1 hPa Calm     76 % 0.0 mm
05:40 21.4 °C 17.2 °C 1015.1 hPa Calm     77 % 0.0 mm
05:45 21.4 °C 17.2 °C 1015.1 hPa Calm     77 % 0.0 mm
05:50 21.4 °C 17.2 °C 1015.1 hPa Calm     77 % 0.0 mm
05:55 21.3 °C 17.3 °C 1015.1 hPa Calm     78 % 0.0 mm
06:00 21.3 °C 17.5 °C 1015.1 hPa Calm     79 % 0.0 mm
06:05 21.3 °C 17.5 °C 1015.1 hPa Calm     79 % 0.0 mm
06:10 21.2 °C 17.6 °C 1015.1 hPa Calm     80 % 0.0 mm
06:15 21.2 °C 17.4 °C 1015.1 hPa Calm     79 % 0.0 mm
06:20 21.2 °C 17.6 °C 1016.1 hPa Calm     80 % 0.0 mm
06:25 21.1 °C 17.5 °C 1016.1 hPa Calm     80 % 0.0 mm
06:30 21.1 °C 17.7 °C 1016.1 hPa Calm     81 % 0.0 mm
06:35 21.1 °C 17.7 °C 1016.1 hPa Calm     81 % 0.0 mm
06:40 21.1 °C 17.7 °C 1016.1 hPa Calm     81 % 0.0 mm
06:45 21.2 °C 17.8 °C 1016.1 hPa Calm     81 % 0.0 mm
06:55 21.2 °C 18.0 °C 1016.1 hPa Calm     82 % 0.0 mm
07:00 21.3 °C 18.1 °C 1016.1 hPa Calm     82 % 0.0 mm
07:05 21.4 °C 18.4 °C 1016.8 hPa Calm     83 % 0.0 mm
07:10 21.5 °C 18.3 °C 1016.8 hPa Calm     82 % 0.0 mm
07:15 21.6 °C 18.6 °C 1016.8 hPa Calm     83 % 0.0 mm
07:20 21.7 °C 18.7 °C 1016.1 hPa Calm     83 % 0.0 mm
07:25 21.9 °C 18.9 °C 1016.1 hPa Calm     83 % 0.0 mm
07:30 22.0 °C 18.8 °C 1016.1 hPa Calm     82 % 0.0 mm
07:35 22.2 °C 19.0 °C 1016.1 hPa Calm     82 % 0.0 mm
07:40 22.4 °C 19.0 °C 1016.1 hPa NNW 0.2 km/h 2.1 km/h 81 % 0.0 mm
07:45 22.5 °C 19.1 °C 1016.1 hPa NNW 0.2 km/h 2.1 km/h 81 % 0.0 mm
07:50 22.7 °C 19.3 °C 1016.8 hPa WSW 0.2 km/h 2.1 km/h 81 % 0.0 mm
07:55 22.9 °C 19.3 °C 1016.8 hPa WSW 0.2 km/h 2.1 km/h 80 % 0.0 mm
08:00 23.1 °C 19.3 °C 1016.8 hPa Calm     79 % 0.0 mm
08:05 23.3 °C 19.4 °C 1016.1 hPa SE 0.3 km/h 3.5 km/h 79 % 0.0 mm
08:10 23.5 °C 19.4 °C 1016.1 hPa SE 0.3 km/h 4.3 km/h 78 % 0.0 mm
08:15 23.7 °C 19.4 °C 1016.1 hPa SW 1.6 km/h 5.8 km/h 77 % 0.0 mm
08:20 23.9 °C 19.4 °C 1015.1 hPa SW 3.2 km/h 5.8 km/h 76 % 0.0 mm
08:25 24.0 °C 19.3 °C 1015.1 hPa SW 2.3 km/h 4.7 km/h 75 % 0.0 mm
08:30 24.1 °C 19.2 °C 1015.1 hPa SSW 2.4 km/h 5.8 km/h 74 % 0.0 mm
08:35 24.2 °C 19.5 °C 1015.1 hPa SW 2.7 km/h 6.1 km/h 75 % 0.0 mm
08:40 24.3 °C 19.4 °C 1015.1 hPa SW 3.4 km/h 6.1 km/h 74 % 0.0 mm
08:45 24.4 °C 19.2 °C 1015.1 hPa SSW 4.7 km/h 7.9 km/h 73 % 0.0 mm
08:50 24.5 °C 19.6 °C 1016.1 hPa SSW 4.5 km/h 7.9 km/h 74 % 0.0 mm
08:55 24.8 °C 19.8 °C 1016.1 hPa SW 4.8 km/h 6.9 km/h 74 % 0.0 mm
09:00 25.0 °C 19.8 °C 1016.1 hPa SW 4.5 km/h 6.1 km/h 73 % 0.0 mm
09:05 25.2 °C 19.8 °C 1016.1 hPa SW 3.7 km/h 5.8 km/h 72 % 0.0 mm
09:10 25.5 °C 19.8 °C 1016.1 hPa SW 4.0 km/h 6.9 km/h 71 % 0.0 mm
09:15 25.8 °C 19.4 °C 1016.1 hPa SSW 4.2 km/h 6.9 km/h 68 % 0.0 mm
09:20 25.9 °C 19.1 °C 1015.1 hPa South 3.4 km/h 6.1 km/h 66 % 0.0 mm
09:25 26.1 °C 19.0 °C 1015.1 hPa East 2.1 km/h 6.1 km/h 65 % 0.0 mm
09:30 26.6 °C 18.7 °C 1015.1 hPa East 2.9 km/h 9.7 km/h 62 % 0.0 mm
09:35 26.9 °C 18.5 °C 1016.1 hPa East 4.5 km/h 10.1 km/h 60 % 0.0 mm
09:40 27.0 °C 18.3 °C 1016.1 hPa East 5.3 km/h 10.1 km/h 59 % 0.0 mm
09:45 27.1 °C 17.6 °C 1016.1 hPa East 6.1 km/h 11.9 km/h 56 % 0.0 mm
09:50 27.1 °C 17.0 °C 1016.1 hPa East 7.1 km/h 14.3 km/h 54 % 0.0 mm
09:55 27.1 °C 17.3 °C 1016.1 hPa East 6.8 km/h 14.3 km/h 55 % 0.0 mm
10:00 27.2 °C 17.4 °C 1016.1 hPa East 5.6 km/h 10.1 km/h 55 % 0.0 mm
10:05 27.2 °C 17.4 °C 1016.1 hPa East 4.7 km/h 10.1 km/h 55 % 0.0 mm
10:10 27.2 °C 17.4 °C 1016.1 hPa East 5.6 km/h 12.6 km/h 55 % 0.0 mm
10:15 27.3 °C 17.4 °C 1016.1 hPa East 7.2 km/h 12.6 km/h 55 % 0.0 mm
10:21 27.3 °C 17.4 °C 1016.1 hPa East 6.4 km/h 13.7 km/h 55 % 0.0 mm
10:26 27.2 °C 17.1 °C 1016.1 hPa East 5.8 km/h 13.7 km/h 54 % 0.0 mm
10:31 27.3 °C 17.4 °C 1016.1 hPa East 6.3 km/h 14.0 km/h 55 % 0.0 mm
10:36 27.4 °C 17.6 °C 1016.1 hPa East 7.4 km/h 15.4 km/h 55 % 0.0 mm
10:41 27.4 °C 17.6 °C 1016.1 hPa East 7.4 km/h 16.6 km/h 55 % 0.0 mm
10:46 27.4 °C 17.6 °C 1016.1 hPa East 6.9 km/h 16.6 km/h 55 % 0.0 mm
10:51 27.6 °C 17.7 °C 1016.1 hPa East 6.4 km/h 13.0 km/h 55 % 0.0 mm
10:56 27.5 °C 17.7 °C 1016.1 hPa East 7.1 km/h 16.6 km/h 55 % 0.0 mm
11:01 27.5 °C 17.7 °C 1016.1 hPa East 6.6 km/h 16.6 km/h 55 % 0.0 mm
11:06 27.5 °C 17.7 °C 1016.1 hPa East 5.6 km/h 13.7 km/h 55 % 0.0 mm
11:11 27.7 °C 17.8 °C 1016.1 hPa East 5.3 km/h 11.6 km/h 55 % 0.0 mm
11:16 27.7 °C 17.8 °C 1016.1 hPa East 6.1 km/h 17.2 km/h 55 % 0.0 mm
11:20 27.8 °C 17.9 °C 1016.1 hPa East 7.2 km/h 17.2 km/h 55 % 0.0 mm
11:24 27.8 °C 17.9 °C 1016.1 hPa ESE 7.2 km/h 14.0 km/h 55 % 0.0 mm
11:29 27.9 °C 18.0 °C 1016.1 hPa East 7.4 km/h 14.0 km/h 55 % 0.0 mm
11:34 27.9 °C 18.3 °C 1016.1 hPa East 8.0 km/h 15.8 km/h 56 % 0.0 mm
11:40 27.9 °C 18.0 °C 1016.1 hPa East 8.4 km/h 15.8 km/h 55 % 0.0 mm
11:45 27.9 °C 18.0 °C 1016.1 hPa East 7.4 km/h 13.7 km/h 55 % 0.0 mm
11:50 28.0 °C 18.1 °C 1016.1 hPa ENE 6.8 km/h 14.8 km/h 55 % 0.0 mm
11:55 28.0 °C 18.4 °C 1016.1 hPa East 7.2 km/h 14.8 km/h 56 % 0.0 mm
12:00 27.9 °C 18.0 °C 1016.1 hPa East 6.4 km/h 13.0 km/h 55 % 0.0 mm
12:05 27.9 °C 18.6 °C 1016.1 hPa ENE 6.3 km/h 13.0 km/h 57 % 0.0 mm
12:10 28.0 °C 18.7 °C 1016.1 hPa ENE 7.4 km/h 27.4 km/h 57 % 0.0 mm
12:15 28.1 °C 18.8 °C 1016.1 hPa ENE 8.4 km/h 27.4 km/h 57 % 0.0 mm
12:20 28.0 °C 18.7 °C 1016.1 hPa ENE 8.4 km/h 20.9 km/h 57 % 0.0 mm
12:25 27.9 °C 18.6 °C 1016.1 hPa East 8.0 km/h 19.5 km/h 57 % 0.0 mm
12:30 27.8 °C 18.5 °C 1016.1 hPa East 8.2 km/h 19.5 km/h 57 % 0.0 mm
12:35 27.7 °C 18.7 °C 1016.1 hPa ENE 8.4 km/h 17.7 km/h 58 % 0.0 mm
12:40 27.7 °C 18.9 °C 1016.1 hPa East 7.9 km/h 17.7 km/h 59 % 0.0 mm
12:45 27.7 °C 18.7 °C 1016.1 hPa East 7.1 km/h 14.8 km/h 58 % 0.0 mm
12:50 27.6 °C 18.6 °C 1015.1 hPa ENE 7.1 km/h 14.8 km/h 58 % 0.0 mm
12:55 27.6 °C 18.9 °C 1015.1 hPa East 8.7 km/h 31.4 km/h 59 % 0.0 mm
13:00 27.5 °C 18.2 °C 1015.1 hPa East 10.1 km/h 31.4 km/h 57 % 0.0 mm
13:05 27.5 °C 18.2 °C 1015.1 hPa ENE 9.3 km/h 14.0 km/h 57 % 0.0 mm
13:10 27.5 °C 18.2 °C 1015.1 hPa ENE 7.9 km/h 17.7 km/h 57 % 0.0 mm
13:15 27.6 °C 18.3 °C 1015.1 hPa ENE 6.9 km/h 17.7 km/h 57 % 0.0 mm
13:20 27.7 °C 18.1 °C 1016.8 hPa ENE 8.4 km/h 21.2 km/h 56 % 0.0 mm
13:25 27.7 °C 18.1 °C 1016.8 hPa East 9.3 km/h 21.2 km/h 56 % 0.0 mm
13:32 27.8 °C 18.2 °C 1016.8 hPa ENE 8.4 km/h 15.8 km/h 56 % 0.0 mm
13:37 27.8 °C 17.9 °C 1016.1 hPa ENE 8.5 km/h 16.3 km/h 55 % 0.0 mm
13:42 27.7 °C 17.8 °C 1016.1 hPa ENE 9.0 km/h 17.7 km/h 55 % 0.0 mm
13:47 27.8 °C 17.9 °C 1016.1 hPa ENE 9.2 km/h 17.7 km/h 55 % 0.0 mm
13:52 27.9 °C 18.0 °C 1016.1 hPa ENE 8.4 km/h 16.9 km/h 55 % 0.0 mm
13:57 27.9 °C 18.0 °C 1016.1 hPa East 8.7 km/h 16.9 km/h 55 % 0.0 mm
14:02 27.9 °C 18.0 °C 1016.1 hPa East 8.8 km/h 16.9 km/h 55 % 0.0 mm
14:07 27.9 °C 18.3 °C 1016.8 hPa East 9.3 km/h 16.6 km/h 56 % 0.0 mm
14:13 27.8 °C 18.2 °C 1016.8 hPa East 10.3 km/h 24.8 km/h 56 % 0.0 mm
14:18 27.7 °C 18.1 °C 1016.8 hPa East 10.3 km/h 24.8 km/h 56 % 0.0 mm
14:23 27.7 °C 18.1 °C 1016.1 hPa East 9.8 km/h 20.6 km/h 56 % 0.0 mm
14:28 27.7 °C 18.1 °C 1016.1 hPa East 8.5 km/h 20.9 km/h 56 % 0.0 mm
14:33 27.5 °C 17.9 °C 1016.1 hPa East 7.9 km/h 20.9 km/h 56 % 0.0 mm
14:38 27.3 °C 17.4 °C 1016.8 hPa East 8.4 km/h 14.0 km/h 55 % 0.0 mm
14:43 27.3 °C 17.8 °C 1016.8 hPa ENE 7.2 km/h 21.2 km/h 56 % 0.0 mm
14:48 27.2 °C 17.4 °C 1016.8 hPa East 7.4 km/h 21.2 km/h 55 % 0.0 mm
14:53 27.0 °C 17.2 °C 1016.1 hPa East 7.9 km/h 14.0 km/h 55 % 0.0 mm
14:58 26.8 °C 17.0 °C 1016.1 hPa East 8.4 km/h 21.9 km/h 55 % 0.0 mm
15:03 26.7 °C 16.9 °C 1016.1 hPa East 9.0 km/h 21.9 km/h 55 % 0.0 mm
15:08 26.6 °C 17.1 °C 1016.1 hPa East 8.8 km/h 26.7 km/h 56 % 0.0 mm
15:13 26.4 °C 16.9 °C 1016.1 hPa East 8.4 km/h 26.7 km/h 56 % 0.0 mm
15:18 26.3 °C 17.1 °C 1016.1 hPa ENE 7.1 km/h 13.7 km/h 57 % 0.0 mm
15:23 26.2 °C 17.0 °C 1016.8 hPa NE 5.6 km/h 13.7 km/h 57 % 0.0 mm
15:24 26.2 °C 17.0 °C 1016.8 hPa NE 5.5 km/h 13.7 km/h 57 % 0.0 mm
15:29 26.3 °C 17.4 °C 1016.8 hPa NE 6.0 km/h 15.8 km/h 58 % 0.0 mm
15:34 26.4 °C 17.2 °C 1016.1 hPa ENE 5.8 km/h 15.8 km/h 57 % 0.0 mm
15:40 26.5 °C 17.3 °C 1016.1 hPa ENE 5.6 km/h 13.0 km/h 57 % 0.0 mm
15:43 26.5 °C 17.6 °C 1016.1 hPa ENE 6.9 km/h 13.0 km/h 58 % 0.0 mm
15:48 26.4 °C 17.4 °C 1016.1 hPa NE 6.4 km/h 13.0 km/h 58 % 0.0 mm
15:53 26.3 °C 17.4 °C 1016.1 hPa NE 6.4 km/h 13.7 km/h 58 % 0.0 mm
15:58 26.0 °C 17.1 °C 1016.1 hPa NE 7.2 km/h 14.0 km/h 58 % 0.0 mm
16:03 25.9 °C 17.3 °C 1016.1 hPa NE 6.3 km/h 14.0 km/h 59 % 0.0 mm
16:08 25.8 °C 17.2 °C 1016.1 hPa ENE 6.0 km/h 13.0 km/h 59 % 0.0 mm
16:13 25.8 °C 17.4 °C 1016.1 hPa ENE 6.4 km/h 13.0 km/h 60 % 0.0 mm
16:18 25.7 °C 17.3 °C 1016.1 hPa East 5.0 km/h 13.0 km/h 60 % 0.0 mm
16:23 25.7 °C 17.6 °C 1016.8 hPa East 4.0 km/h 12.2 km/h 61 % 0.0 mm
16:28 25.7 °C 17.6 °C 1016.8 hPa ENE 4.8 km/h 12.2 km/h 61 % 0.0 mm
16:29 25.7 °C 17.6 °C 1016.8 hPa ENE 4.8 km/h 12.2 km/h 61 % 0.0 mm
16:34 25.6 °C 17.5 °C 1016.1 hPa ENE 4.0 km/h 14.0 km/h 61 % 0.0 mm
16:39 25.4 °C 17.3 °C 1016.1 hPa NNE 3.5 km/h 14.0 km/h 61 % 0.0 mm
16:44 25.2 °C 16.9 °C 1016.1 hPa NNE 5.0 km/h 12.6 km/h 60 % 0.0 mm
16:45 25.2 °C 16.9 °C 1016.1 hPa NE 5.8 km/h 31.4 km/h 60 % 0.0 mm
16:50 25.0 °C 16.2 °C 1016.1 hPa NE 8.5 km/h 31.4 km/h 58 % 0.0 mm
16:55 24.8 °C 16.0 °C 1016.1 hPa ENE 8.4 km/h 18.0 km/h 58 % 0.0 mm
17:00 24.6 °C 15.8 °C 1016.1 hPa NE 7.2 km/h 16.3 km/h 58 % 0.0 mm
17:05 24.5 °C 15.7 °C 1016.1 hPa NE 7.2 km/h 16.3 km/h 58 % 0.0 mm
17:10 24.4 °C 16.1 °C 1016.1 hPa ENE 8.4 km/h 23.8 km/h 60 % 0.0 mm
17:16 24.2 °C 16.7 °C 1016.1 hPa ENE 11.1 km/h 23.8 km/h 63 % 0.3 mm
17:21 23.7 °C 16.7 °C 1016.1 hPa ENE 10.8 km/h 22.7 km/h 65 % 0.3 mm
17:26 23.4 °C 16.9 °C 1016.1 hPa ENE 8.2 km/h 24.5 km/h 67 % 0.3 mm
17:31 23.4 °C 16.9 °C 1016.1 hPa ENE 6.4 km/h 24.5 km/h 67 % 0.3 mm
17:36 23.6 °C 17.3 °C 1016.1 hPa NE 5.8 km/h 16.6 km/h 68 % 0.3 mm
17:41 23.9 °C 17.6 °C 1016.1 hPa NE 5.5 km/h 13.7 km/h 68 % 0.3 mm
17:46 23.9 °C 17.6 °C 1016.1 hPa ENE 7.1 km/h 18.3 km/h 68 % 0.3 mm
17:51 24.1 °C 17.8 °C 1016.1 hPa ENE 7.7 km/h 18.3 km/h 68 % 0.3 mm
17:56 24.0 °C 17.5 °C 1016.1 hPa ENE 7.2 km/h 12.6 km/h 67 % 0.3 mm
18:01 23.8 °C 17.1 °C 1016.1 hPa ENE 8.4 km/h 20.9 km/h 66 % 0.3 mm
18:06 23.6 °C 16.9 °C 1016.1 hPa ENE 7.7 km/h 20.9 km/h 66 % 0.3 mm
18:11 23.4 °C 16.7 °C 1016.1 hPa NE 7.9 km/h 16.9 km/h 66 % 0.3 mm
18:21 23.2 °C 16.7 °C 1016.1 hPa ENE 6.8 km/h 15.8 km/h 67 % 0.0 mm
18:26 23.1 °C 16.6 °C 1016.1 hPa NE 7.1 km/h 15.8 km/h 67 % 0.0 mm
18:31 23.0 °C 16.6 °C 1016.1 hPa ENE 5.3 km/h 10.5 km/h 67 % 0.0 mm
18:36 22.9 °C 16.4 °C 1016.8 hPa NE 4.2 km/h 12.2 km/h 67 % 0.0 mm
18:41 22.8 °C 16.3 °C 1016.8 hPa ENE 5.6 km/h 12.2 km/h 67 % 0.0 mm
18:46 22.8 °C 16.3 °C 1016.8 hPa East 7.2 km/h 19.5 km/h 67 % 0.0 mm
18:51 22.7 °C 16.3 °C 1016.8 hPa East 6.3 km/h 19.5 km/h 67 % 0.0 mm
18:56 22.7 °C 16.3 °C 1016.8 hPa ENE 6.4 km/h 16.3 km/h 67 % 0.0 mm
18:58 22.7 °C 16.3 °C 1016.8 hPa ENE 6.6 km/h 17.2 km/h 67 % 0.0 mm
19:03 22.6 °C 15.9 °C 1016.8 hPa ENE 8.8 km/h 25.9 km/h 66 % 0.0 mm
19:08 22.6 °C 16.2 °C 1016.8 hPa ENE 10.0 km/h 25.9 km/h 67 % 0.0 mm
19:13 22.4 °C 16.2 °C 1016.8 hPa ENE 8.7 km/h 21.6 km/h 68 % 0.0 mm
19:18 22.3 °C 16.1 °C 1016.8 hPa ENE 8.2 km/h 20.9 km/h 68 % 0.0 mm
19:23 22.3 °C 16.3 °C 1016.8 hPa ENE 8.4 km/h 20.6 km/h 69 % 0.0 mm
19:28 22.2 °C 16.2 °C 1016.8 hPa ENE 7.9 km/h 20.6 km/h 69 % 0.0 mm
19:33 22.1 °C 16.4 °C 1016.8 hPa East 7.2 km/h 13.7 km/h 70 % 0.0 mm
19:38 22.0 °C 16.3 °C 1016.8 hPa ENE 7.2 km/h 13.7 km/h 70 % 0.0 mm
19:43 21.9 °C 16.4 °C 1016.8 hPa ENE 9.0 km/h 13.7 km/h 71 % 0.0 mm
19:48 21.9 °C 16.4 °C 1016.8 hPa ENE 10.0 km/h 11.9 km/h 71 % 0.0 mm
19:53 21.8 °C 16.3 °C 1016.8 hPa East 9.5 km/h 20.9 km/h 71 % 0.0 mm
19:58 21.7 °C 16.2 °C 1016.8 hPa East 8.7 km/h 20.9 km/h 71 % 0.0 mm
20:04 21.6 °C 16.1 °C 1016.8 hPa ENE 7.6 km/h 15.8 km/h 71 % 0.0 mm
20:09 21.5 °C 16.0 °C 1016.8 hPa ENE 8.4 km/h 27.0 km/h 71 % 0.0 mm
20:14 21.3 °C 16.1 °C 1016.8 hPa ENE 9.0 km/h 27.0 km/h 72 % 0.0 mm
20:19 21.1 °C 16.3 °C 1016.8 hPa ENE 10.6 km/h 28.5 km/h 74 % 0.0 mm
20:24 21.0 °C 16.2 °C 1016.8 hPa ENE 10.9 km/h 28.5 km/h 74 % 0.0 mm
20:29 20.9 °C 16.1 °C 1016.8 hPa NE 9.8 km/h 21.6 km/h 74 % 0.0 mm
20:34 20.8 °C 16.0 °C 1016.8 hPa ENE 9.8 km/h 21.6 km/h 74 % 0.0 mm
20:39 20.7 °C 15.9 °C 1016.8 hPa ENE 7.9 km/h 20.1 km/h 74 % 0.0 mm
20:44 20.7 °C 15.9 °C 1016.8 hPa ENE 6.6 km/h 20.1 km/h 74 % 0.0 mm
20:49 20.6 °C 16.0 °C 1018.2 hPa ENE 7.7 km/h 30.9 km/h 75 % 0.0 mm
20:54 20.5 °C 15.9 °C 1018.2 hPa ENE 8.8 km/h 30.9 km/h 75 % 0.0 mm
20:59 20.5 °C 15.9 °C 1018.2 hPa ENE 7.9 km/h 20.9 km/h 75 % 0.0 mm
21:04 20.4 °C 15.8 °C 1018.2 hPa ENE 6.4 km/h 14.3 km/h 75 % 0.0 mm
21:09 20.5 °C 16.1 °C 1018.2 hPa ENE 7.1 km/h 16.9 km/h 76 % 0.0 mm
21:14 20.5 °C 16.3 °C 1018.2 hPa East 10.1 km/h 21.2 km/h 77 % 0.0 mm
21:19 20.4 °C 16.2 °C 1018.2 hPa East 10.8 km/h 24.8 km/h 77 % 0.0 mm
21:24 20.4 °C 16.2 °C 1018.2 hPa East 9.3 km/h 24.8 km/h 77 % 0.0 mm
21:29 20.3 °C 16.3 °C 1018.2 hPa East 8.8 km/h 23.8 km/h 78 % 0.0 mm
21:34 20.3 °C 16.3 °C 1018.2 hPa East 7.9 km/h 19.8 km/h 78 % 0.0 mm
21:39 20.3 °C 16.3 °C 1018.2 hPa East 6.1 km/h 17.7 km/h 78 % 0.0 mm
21:44 20.3 °C 16.6 °C 1018.2 hPa ENE 7.7 km/h 17.7 km/h 79 % 0.0 mm
21:49 20.1 °C 16.7 °C 1018.2 hPa ENE 9.3 km/h 16.3 km/h 81 % 0.3 mm
21:54 20.0 °C 16.6 °C 1018.2 hPa East 7.9 km/h 16.3 km/h 81 % 0.3 mm
21:59 19.8 °C 16.4 °C 1018.2 hPa East 6.3 km/h 14.8 km/h 81 % 0.5 mm
22:04 19.7 °C 16.6 °C 1018.2 hPa NE 6.0 km/h 10.5 km/h 82 % 0.5 mm
22:09 19.6 °C 16.4 °C 1018.2 hPa ENE 5.3 km/h 8.7 km/h 82 % 0.5 mm
22:14 19.6 °C 16.4 °C 1018.2 hPa East 3.9 km/h 7.9 km/h 82 % 0.5 mm
22:19 19.5 °C 16.7 °C 1019.9 hPa West 3.9 km/h 9.7 km/h 84 % 0.8 mm
22:24 19.4 °C 16.8 °C 1019.9 hPa SSE 4.2 km/h 9.7 km/h 85 % 1.0 mm
22:29 19.3 °C 16.5 °C 1019.9 hPa ENE 5.6 km/h 20.6 km/h 84 % 3.0 mm
22:30 19.3 °C 16.5 °C 1019.9 hPa ENE 5.5 km/h 20.6 km/h 84 % 3.3 mm
22:35 19.2 °C 16.6 °C 1019.9 hPa ENE 6.4 km/h 20.6 km/h 85 % 4.6 mm
22:40 19.1 °C 16.7 °C 1019.9 hPa ENE 5.6 km/h 9.7 km/h 86 % 4.8 mm
22:42 19.1 °C 16.7 °C 1019.9 hPa ENE 6.9 km/h 15.8 km/h 86 % 5.1 mm
22:47 19.0 °C 16.6 °C 1019.9 hPa ENE 7.4 km/h 17.2 km/h 86 % 4.8 mm
22:52 19.0 °C 16.4 °C 1018.8 hPa NNE 8.4 km/h 17.2 km/h 85 % 5.6 mm
22:57 18.9 °C 16.3 °C 1018.8 hPa NNW 7.1 km/h 16.9 km/h 85 % 5.8 mm
23:02 18.8 °C 16.4 °C 1018.8 hPa SSW 6.1 km/h 10.1 km/h 86 % 5.8 mm
23:07 18.8 °C 16.6 °C 1019.9 hPa SSE 6.9 km/h 14.0 km/h 87 % 5.8 mm
23:12 18.7 °C 16.3 °C 1019.9 hPa ESE 5.8 km/h 14.0 km/h 86 % 6.3 mm
23:17 18.6 °C 16.4 °C 1019.9 hPa East 5.3 km/h 13.0 km/h 87 % 7.1 mm
23:22 18.6 °C 16.4 °C 1019.9 hPa East 5.8 km/h 13.0 km/h 87 % 7.1 mm
23:27 18.6 °C 16.4 °C 1019.9 hPa ESE 5.8 km/h 10.5 km/h 87 % 6.1 mm
23:32 18.5 °C 16.3 °C 1019.9 hPa SSE 6.3 km/h 10.5 km/h 87 % 4.1 mm
23:37 18.5 °C 16.5 °C 1020.9 hPa South 7.2 km/h 11.9 km/h 88 % 3.3 mm
23:42 18.4 °C 16.6 °C 1020.9 hPa SSW 6.1 km/h 11.9 km/h 89 % 3.3 mm
23:47 18.2 °C 16.3 °C 1020.9 hPa SSW 2.3 km/h 7.9 km/h 89 % 3.3 mm
23:52 18.2 °C 16.6 °C 1020.9 hPa SW 0.2 km/h 4.3 km/h 90 % 2.8 mm
23:57 18.1 °C 16.3 °C 1020.9 hPa SW 2.1 km/h 5.0 km/h 89 % 2.5 mm
Vremenska postaja Senovo
Podatki zbrani iz Weather Underground - 3 mb

Script developed by  Jim McMurry - jmcmurry@mwt.net Adapted for the template by  Wim van der Kuil - Leuven-Template.eu

Vremenski podatki so objavljeni na:

WeatherCloud

Weather Underground

AWEKAS

HAMweather, WeatherForYou, PWS Weather

MapView

Geostik

Slovenia weather network

Oprema, ki se uporablja:

Vremenski program
Cumulus

Cumulus